Regional Weather Roundup
Issued by NWS

Home | Current Version | Previous Version | Text Only | Print | Product List | Glossary On
Versions: 1 2 3 4 5 6 7 8 9 10 11 12 13 14 15 16 17 18 19 20 21 22 23 24 25 26 27 28 29 30 31 32 33 34 35 36 37 38 39 40 41 42 43 44 45 46 47 48 49 50
000
ASUS44 KBMX 071310
RWRAL

ALABAMA REGIONAL WEATHER ROUNDUP
NATIONAL WEATHER SERVICE BIRMINGHAM AL
700 AM CST SUN FEB 07 2016

NOTE: "FAIR" INDICATES FEW OR NO CLOUDS BELOW 12,000 FEET
WITH NO SIGNIFICANT WEATHER AND/OR OBSTRUCTIONS TO VISIBILITY.

THE REMARK "TC" DENOTES TEMPERATURE IN DEGREES CELSIUS.

ALZ001>011-014-016>018-020-071400-
NORTH ALABAMA

CITY           SKY/WX    TMP DP  RH WIND       PRES   REMARKS
MUSCLE SHOALS  CLEAR     27  24  89 CALM      30.26R
HUNTSVILLE     CLEAR     28  25  88 SE3       30.24R
DECATUR        CLEAR     26  25  96 CALM      30.25R
HALEYVILLE     FAIR      23  21  92 CALM      30.25R
GADSDEN        CLEAR     24  22  91 CALM      30.24R
$$

ALZ012-013-022-023-030>036-040>044-071400-
WEST CENTRAL ALABAMA

CITY           SKY/WX    TMP DP  RH WIND       PRES   REMARKS
TUSCALOOSA     CLEAR     28  24  85 CALM      30.28R
$$

ALZ015-024>027-033>036-040>044-071400-
CENTRAL ALABAMA

CITY           SKY/WX    TMP DP  RH WIND       PRES   REMARKS
BIRMINGHAM     CLEAR     28  24  85 CALM      30.26R
MONTGOMERY     CLEAR     30  24  78 W5        30.25R WCI  25
SHELBY CO ARPT CLEAR     33  23  66 CALM      30.24R
MAXWELL AFB    CLEAR     29  24  83 CALM      30.23R
GREENVILLE     NOT AVBL
$$

ALZ019-021-028-029-037-038-045>048-071400-
EAST CENTRAL ALABAMA

CITY           SKY/WX    TMP DP  RH WIND       PRES   REMARKS
ANNISTON       CLEAR     27  23  85 CALM      30.23R
ALEXANDER CITY CLEAR     31  28  88 NW3       30.21S
AUBURN         CLEAR     34  21  59 N7        30.20R WCI  28
$$

ALZ051>064-071400-
SOUTHWEST ALABAMA

CITY           SKY/WX    TMP DP  RH WIND       PRES   REMARKS
MOBILE         PTCLDY    31  25  78 NW3       30.28S
BROOKLEY FIELD PTCLDY    34  23  64 W3        30.30R
EVERGREEN      CLEAR     31  23  72 NW5       30.25R WCI  26
$$

ALZ049-050-065>069-071400-
SOUTHEAST ALABAMA

CITY           SKY/WX    TMP DP  RH WIND       PRES   REMARKS
DOTHAN         CLEAR     33  26  75 NW7       30.22R WCI  27
OZARK          CLEAR     34  24  67 NW8       30.19R WCI  27
TROY           CLEAR     36  24  62 NW10      30.22R WCI  28
EUFAULA        FAIR      35  23  61 VRB3      30.19R
$$



USA.gov is the U.S. government's official web portal to all federal, state and local government web resources and services.